When you browse on this site, cookies collect data to enhance your experience and personalize the content and advertising you see.
Visit our Privacy Policy to learn more. By continuing to use the site, you agree to this use of cookies and data.
  • In Spain
  • List of Countries
  • For 7 days
  • Water Temperature
  • Satellite Maps
  • Weather Map
  • Weather Widgets
  • user-avatar
    Login

    Hourly Weather Kurhanivka

    Today, 23 May, Thursday

    Time Temperature Precipitation Wind Pressure Humidity
    00:00 +13°C° 0 mm 1 mps 732 mmHg 88%
    01:00 +13°C° 0 mm 1 mps 732 mmHg 88%
    02:00 +12°C° 0 mm 0 mps 731 mmHg 88%
    03:00 +12°C° 0 mm 0 mps 732 mmHg 88%
    04:00 +12°C° 0 mm 0 mps 732 mmHg 88%
    05:00 +12°C° 0 mm 0 mps 732 mmHg 87%
    06:00 +13°C° 0 mm 0 mps 732 mmHg 83%
    07:00 +15°C° 0 mm 0 mps 732 mmHg 79%
    08:00 +17°C° 0 mm 0 mps 732 mmHg 75%
    09:00 +18°C° 0 mm 0 mps 732 mmHg 70%
    10:00 +20°C° 0 mm 0 mps 732 mmHg 65%
    11:00 +21°C° 0 mm 0 mps 733 mmHg 60%
    12:00 +22°C° 0 mm 0 mps 733 mmHg 57%
    13:00 +22°C° 0 mm 0 mps 732 mmHg 55%
    14:00 +23°C° 0 mm 0 mps 732 mmHg 52%
    15:00 +24°C° 0 mm 1 mps 732 mmHg 55%
    16:00 +24°C° 0 mm 1 mps 732 mmHg 57%
    17:00 +24°C° 0 mm 2 mps 732 mmHg 60%
    18:00 +21°C° 0.1 mm 2 mps 732 mmHg 67%
    19:00 +19°C° 0.1 mm 2 mps 732 mmHg 74%
    20:00 +17°C° 0.1 mm 2 mps 732 mmHg 81%
    21:00 +17°C° 0 mm 2 mps 732 mmHg 82%
    22:00 +16°C° 0 mm 1 mps 732 mmHg 83%
    23:00 +16°C° 0 mm 1 mps 732 mmHg 84%

    Tomorrow, 24 May, Friday

    Time Temperature Precipitation Wind Pressure Humidity
    00:00 +16°C° 0.2 mm 1 mps 732 mmHg 85%
    01:00 +14°C° 0.2 mm 0 mps 732 mmHg 86%
    02:00 +14°C° 0.2 mm 0 mps 732 mmHg 87%
    03:00 +14°C° 0 mm 0 mps 732 mmHg 87%
    04:00 +14°C° 0 mm 0 mps 732 mmHg 88%
    05:00 +14°C° 0 mm 0 mps 732 mmHg 88%
    06:00 +16°C° 0.1 mm 1 mps 732 mmHg 85%
    07:00 +18°C° 0.1 mm 1 mps 733 mmHg 83%
    08:00 +20°C° 0.1 mm 1 mps 733 mmHg 80%
    09:00 +21°C° 0.1 mm 1 mps 733 mmHg 74%
    10:00 +22°C° 0.1 mm 1 mps 733 mmHg 69%
    11:00 +24°C° 0.1 mm 2 mps 733 mmHg 63%
    12:00 +24°C° 0.5 mm 2 mps 733 mmHg 62%
    13:00 +24°C° 0.5 mm 2 mps 732 mmHg 62%
    14:00 +24°C° 0.5 mm 2 mps 732 mmHg 61%
    15:00 +24°C° 2 mm 2 mps 732 mmHg 66%
    16:00 +23°C° 2 mm 1 mps 732 mmHg 72%
    17:00 +22°C° 2 mm 1 mps 732 mmHg 77%
    18:00 +21°C° 0.3 mm 1 mps 732 mmHg 79%
    19:00 +20°C° 0.3 mm 1 mps 731 mmHg 82%
    20:00 +18°C° 0.3 mm 2 mps 731 mmHg 85%
    21:00 +18°C° 0.1 mm 1 mps 731 mmHg 87%
    22:00 +16°C° 0.1 mm 1 mps 731 mmHg 88%
    23:00 +16°C° 0.1 mm 1 mps 731 mmHg 90%

    Day after tomorrow, 25 May, Saturday

    Time Temperature Precipitation Wind Pressure Humidity
    00:00 +15°C° 0 mm 1 mps 731 mmHg 91%
    01:00 +15°C° 0 mm 1 mps 731 mmHg 92%
    02:00 +15°C° 0 mm 1 mps 731 mmHg 93%
    03:00 +15°C° 0 mm 1 mps 731 mmHg 93%
    04:00 +14°C° 0 mm 1 mps 731 mmHg 93%
    05:00 +14°C° 0 mm 1 mps 731 mmHg 93%
    06:00 +16°C° 0.1 mm 1 mps 731 mmHg 91%
    07:00 +17°C° 0.1 mm 2 mps 731 mmHg 88%
    08:00 +18°C° 0.1 mm 2 mps 732 mmHg 85%
    09:00 +20°C° 0.6 mm 2 mps 732 mmHg 80%
    10:00 +21°C° 0.6 mm 3 mps 731 mmHg 74%
    11:00 +22°C° 0.6 mm 3 mps 731 mmHg 68%
    12:00 +22°C° 0.7 mm 4 mps 731 mmHg 69%
    13:00 +22°C° 0.7 mm 4 mps 732 mmHg 70%
    14:00 +22°C° 0.7 mm 5 mps 732 mmHg 72%
    15:00 +22°C° 0.6 mm 5 mps 732 mmHg 75%
    16:00 +21°C° 0.6 mm 5 mps 731 mmHg 78%
    17:00 +21°C° 0.6 mm 5 mps 731 mmHg 81%
    18:00 +19°C° 0.3 mm 4 mps 732 mmHg 83%
    19:00 +18°C° 0.3 mm 3 mps 732 mmHg 86%
    20:00 +17°C° 0.3 mm 3 mps 732 mmHg 89%
    21:00 +16°C° 0 mm 3 mps 732 mmHg 89%
    22:00 +14°C° 0 mm 3 mps 733 mmHg 90%
    23:00 +13°C° 0 mm 3 mps 733 mmHg 90%

    26 May, Sunday

    Time Temperature Precipitation Wind Pressure Humidity
    00:00 +13°C° 0 mm 3 mps 733 mmHg 91%
    01:00 +12°C° 0 mm 3 mps 733 mmHg 92%
    02:00 +12°C° 0 mm 3 mps 733 mmHg 93%
    03:00 +12°C° 0 mm 3 mps 733 mmHg 94%
    04:00 +12°C° 0 mm 3 mps 734 mmHg 94%
    05:00 +12°C° 0 mm 3 mps 734 mmHg 95%
    06:00 +13°C° 0 mm 3 mps 734 mmHg 90%
    07:00 +16°C° 0 mm 3 mps 734 mmHg 86%
    08:00 +17°C° 0 mm 3 mps 734 mmHg 82%
    09:00 +18°C° 0 mm 4 mps 735 mmHg 77%
    10:00 +19°C° 0 mm 4 mps 735 mmHg 71%
    11:00 +20°C° 0 mm 4 mps 735 mmHg 66%
    12:00 +21°C° 0 mm 4 mps 735 mmHg 64%
    13:00 +21°C° 0 mm 5 mps 735 mmHg 63%
    14:00 +22°C° 0 mm 5 mps 735 mmHg 62%
    15:00 +21°C° 0.1 mm 4 mps 734 mmHg 65%
    16:00 +21°C° 0.1 mm 4 mps 734 mmHg 67%
    17:00 +21°C° 0.1 mm 4 mps 734 mmHg 70%
    18:00 +20°C° 0.1 mm 3 mps 734 mmHg 75%
    19:00 +18°C° 0.1 mm 2 mps 734 mmHg 81%
    20:00 +17°C° 0.1 mm 2 mps 734 mmHg 87%
    21:00 +17°C° 0.6 mm 2 mps 734 mmHg 89%
    22:00 +16°C° 0.6 mm 2 mps 734 mmHg 91%
    23:00 +14°C° 0.6 mm 3 mps 735 mmHg 93%

    27 May, Monday

    Time Temperature Precipitation Wind Pressure Humidity
    00:00 +15°C° 0 mm 2 mps 735 mmHg 93%
    01:00 +15°C° 0 mm 2 mps 735 mmHg 93%
    02:00 +15°C° 0 mm 2 mps 735 mmHg 93%
    03:00 +14°C° 0 mm 1 mps 735 mmHg 93%
    04:00 +14°C° 0 mm 1 mps 735 mmHg 93%
    05:00 +14°C° 0 mm 1 mps 735 mmHg 94%
    06:00 +16°C° 0 mm 1 mps 735 mmHg 89%
    07:00 +17°C° 0 mm 0 mps 736 mmHg 84%
    08:00 +18°C° 0 mm 0 mps 736 mmHg 80%
    09:00 +22°C° 0.1 mm 1 mps 736 mmHg 75%
    10:00 +23°C° 0.1 mm 1 mps 736 mmHg 70%
    11:00 +24°C° 0.1 mm 1 mps 736 mmHg 65%
    12:00 +25°C° 0 mm 1 mps 736 mmHg 63%
    13:00 +25°C° 0 mm 1 mps 735 mmHg 60%
    14:00 +26°C° 0 mm 2 mps 735 mmHg 58%
    15:00 +26°C° 0 mm 2 mps 735 mmHg 59%
    16:00 +26°C° 0 mm 2 mps 735 mmHg 61%
    17:00 +26°C° 0 mm 2 mps 734 mmHg 62%
    18:00 +25°C° 0 mm 2 mps 734 mmHg 69%
    19:00 +23°C° 0 mm 2 mps 734 mmHg 76%
    20:00 +20°C° 0 mm 3 mps 734 mmHg 83%
    21:00 +20°C° 0 mm 3 mps 733 mmHg 83%
    22:00 +20°C° 0 mm 4 mps 733 mmHg 84%
    23:00 +19°C° 0 mm 4 mps 733 mmHg 84%

    28 May, Tuesday

    Time Temperature Precipitation Wind Pressure Humidity
    00:00 +19°C° 0 mm 5 mps 733 mmHg 80%
    01:00 +19°C° 0 mm 5 mps 733 mmHg 77%
    02:00 +17°C° 0 mm 6 mps 733 mmHg 73%
    03:00 +16°C° 0 mm 6 mps 732 mmHg 75%
    04:00 +16°C° 0 mm 5 mps 732 mmHg 78%
    05:00 +15°C° 0 mm 5 mps 732 mmHg 80%
    06:00 +16°C° 0 mm 6 mps 732 mmHg 79%
    07:00 +17°C° 0 mm 7 mps 732 mmHg 78%
    08:00 +18°C° 0 mm 7 mps 732 mmHg 76%
    09:00 +20°C° 0 mm 8 mps 732 mmHg 73%
    10:00 +21°C° 0 mm 8 mps 732 mmHg 70%
    11:00 +23°C° 0 mm 8 mps 732 mmHg 66%
    12:00 +23°C° 0 mm 9 mps 731 mmHg 65%
    13:00 +24°C° 0 mm 9 mps 731 mmHg 65%
    14:00 +26°C° 0 mm 9 mps 731 mmHg 64%
    15:00 +24°C° 0.7 mm 8 mps 731 mmHg 68%
    16:00 +24°C° 0.7 mm 7 mps 731 mmHg 73%
    17:00 +23°C° 0.7 mm 6 mps 730 mmHg 77%
    18:00 +22°C° 1.1 mm 6 mps 730 mmHg 79%
    19:00 +21°C° 1.1 mm 5 mps 730 mmHg 81%
    20:00 +20°C° 1.1 mm 5 mps 730 mmHg 83%
    21:00 +19°C° 0.6 mm 4 mps 731 mmHg 86%
    22:00 +18°C° 0.6 mm 4 mps 731 mmHg 89%
    23:00 +18°C° 0.6 mm 3 mps 731 mmHg 92%
    Show more